SQ5OUZ-8 Weather Reports


Display with metric or nautical units.
time (UTC)temp
F
wind
direction
speed
MPH
gust
MPH
rain 1hr
in
rain 24hr
in
rain mn
in
humidity
%
barometer
mb
20260506071940 79 0.0 0.0 0.00 0.00 0.00 31 1006.0
20260506070217 79 0.0 0.0 0.00 0.00 0.00 32 1006.0
20260506060835 70 0.0 0.0 0.00 0.00 0.00 41 1006.0
20260506051411 62 0.0 0.0 0.00 0.00 0.00 50 1007.0
20260506043349 60 0.0 0.0 0.00 0.00 0.00 53 1007.0
20260506041434 57 0.0 0.0 0.00 0.00 0.00 57 1007.0
20260506035444 56 0.0 0.0 0.00 0.00 0.00 58 1007.0
20260506033548 57 0.0 0.0 0.00 0.00 0.00 58 1007.0
20260506031627 57 0.0 0.0 0.00 0.00 0.00 57 1007.0
20260506030029 58 0.0 0.0 0.00 0.00 0.00 55 1007.0
20260506024137 58 0.0 0.0 0.00 0.00 0.00 52 1007.0
20260506022152 60 0.0 0.0 0.00 0.00 0.00 49 1007.0
20260506020248 61 0.0 0.0 0.00 0.00 0.00 46 1007.0
20260506014631 61 0.0 0.0 0.00 0.00 0.00 45 1007.0
20260506013011 62 0.0 0.0 0.00 0.00 0.00 42 1007.0
20260506011233 62 0.0 0.0 0.00 0.00 0.00 42 1007.0
20260506005625 61 0.0 0.0 0.00 0.00 0.00 43 1007.0
20260506003737 61 0.0 0.0 0.00 0.00 0.00 44 1007.0
20260506001943 61 0.0 0.0 0.00 0.00 0.00 43 1007.0
20260506000158 61 0.0 0.0 0.00 0.00 0.00 43 1007.0
20260505234319 62 0.0 0.0 0.00 0.00 0.00 42 1007.0
20260505232352 62 0.0 0.0 0.00 0.00 0.00 41 1007.0
20260505230755 63 0.0 0.0 0.00 0.00 0.00 41 1007.0
20260505225104 63 0.0 0.0 0.00 0.00 0.00 40 1007.0
20260505223325 64 0.0 0.0 0.00 0.00 0.00 40 1007.0
20260505221345 64 0.0 0.0 0.00 0.00 0.00 39 1007.0
20260505215704 65 0.0 0.0 0.00 0.00 0.00 37 1007.0
20260505213957 65 0.0 0.0 0.00 0.00 0.00 38 1007.0
20260505212143 66 0.0 0.0 0.00 0.00 0.00 37 1007.0
20260505210227 67 0.0 0.0 0.00 0.00 0.00 35 1007.0
20260505204233 68 0.0 0.0 0.00 0.00 0.00 34 1007.0
20260505202333 69 0.0 0.0 0.00 0.00 0.00 34 1007.0
20260505200647 69 0.0 0.0 0.00 0.00 0.00 34 1007.0
20260505194625 70 0.0 0.0 0.00 0.00 0.00 33 1006.0
20260505192644 71 0.0 0.0 0.00 0.00 0.00 32 1006.0
20260505190953 71 0.0 0.0 0.00 0.00 0.00 31 1006.0
20260505185027 72 0.0 0.0 0.00 0.00 0.00 30 1006.0
20260505183347 73 0.0 0.0 0.00 0.00 0.00 29 1006.0
20260505181422 75 0.0 0.0 0.00 0.00 0.00 27 1006.0
20260505175804 76 0.0 0.0 0.00 0.00 0.00 25 1006.0
20260505174028 78 0.0 0.0 0.00 0.00 0.00 24 1006.0
20260505172041 79 0.0 0.0 0.00 0.00 0.00 22 1006.0
20260505170203 80 0.0 0.0 0.00 0.00 0.00 21 1006.0
20260505164411 80 0.0 0.0 0.00 0.00 0.00 19 1006.0
20260505162423 80 0.0 0.0 0.00 0.00 0.00 19 1006.0
20260505160428 80 0.0 0.0 0.00 0.00 0.00 18 1006.0
20260505152838 81 0.0 0.0 0.00 0.00 0.00 17 1007.0
20260505151200 82 0.0 0.0 0.00 0.00 0.00 17 1007.0
20260505140200 85 0.0 0.0 0.00 0.00 0.00 16 1007.0